Regional Weather Roundup
Issued by NWS Tiyan, Guam

Home | Current Version | Previous Version | Text Only | Print | Product List | Glossary On
Versions: 1 2 3 4 5 6 7 8 9 10 11 12 13 14 15 16 17 18 19 20 21 22 23 24 25 26 27 28
000
ASGM40 PGUM 242212
RWRGUM
WEATHER ROUNDUP FOR THE MARIANAS
NATIONAL WEATHER SERVICE TIYAN GU
800 AM GSST FRI APR 25 2014

GUZ001>004-242300-
MARIANA ISLANDS-

CITY           SKY/WX    TMP DP  RH WIND       PRES   REMARKS
GUAM AIRPORT   SUNNY     82  72  69 E16G22    29.86R
ANDERSEN AFB   SUNNY     82  72  69 E15       29.86R
ROTA AIRPORT   MOSUNNY   81  73  78 E16       29.87R
TINIAN AP      PTSUNNY   81  73  78 NE17      29.85R
SAIPAN AP      PTSUNNY   81  73  78 NE17      29.86R

$$




USA.gov is the U.S. government's official web portal to all federal, state and local government web resources and services.